Regional Weather Roundup
Issued by NWS

Home | Current Version | Previous Version | Graphics & Text | Print | Product List | Glossary On
Versions: 1 2 3 4 5 6 7 8 9 10 11 12 13 14 15 16 17 18 19 20 21 22 23 24 25 26 27 28 29 30 31 32 33 34 35 36 37 38 39 40 41 42 43 44 45 46 47 48 49 50
000
ASUS43 KLMK 310710
RWRKY
KENTUCKY REGIONAL WEATHER ROUNDUP
NATIONAL WEATHER SERVICE LOUISVILLE KY
300 AM EDT FRI JUL 31 2015

NOTE "FAIR" INDICATES FEW OR NO CLOUDS BELOW 12,000 FEET
WITH NO SIGNIFICANT WEATHER AND/OR OBSTRUCTIONS TO VISIBILITY.

KYZ001>023-026-027-061>063-070>075-310800-
WESTERN AND SOUTH CENTRAL KENTUCKY

CITY           SKY/WX    TMP DP  RH WIND       PRES   REMARKS
PADUCAH        CLEAR     67  64  90 CALM      30.08F
HENDERSON      CLEAR    N/A N/A N/A MISG        N/A
OWENSBORO      CLEAR     70  67  90 CALM      30.08F
HOPKINSVILLE   PTCLDY    69  64  85 NW3       30.07F
BOWLING GREEN  CLEAR     68  63  84 CALM      30.08F
GLASGOW        PTCLDY   N/A N/A N/A CALM      30.08F
$$

KYZ024-025-028>034-038-045-046-053-310800-
NORTH CENTRAL KENTUCKY

CITY           SKY/WX    TMP DP  RH WIND       PRES   REMARKS
LOUISVILLE/SDF PTCLDY    72  62  71 CALM      30.07S
LOUISVILLE/LOU CLEAR     68  62  81 CALM      30.08S
FORT KNOX      CLEAR     62  60  93 CALM      30.07S
$$

KYZ035>037-039>044-047>052-055>060-089>105-310800-
NORTHEAST KENTUCKY

CITY           SKY/WX    TMP DP  RH WIND       PRES   REMARKS
LEXINGTON      CLEAR     65  61  87 CALM      30.08F
COVINGTON      CLEAR     68  62  83 VRB3      30.07S
FRANKFORT      CLEAR     63  61  93 CALM      30.07S
$$

KYZ054-064>069-076>088-106>120-310800-
SOUTHEAST KENTUCKY

CITY           SKY/WX    TMP DP  RH WIND       PRES   REMARKS
JACKSON        CLEAR     69  57  65 N5        30.08F
LONDON         CLEAR     66  59  78 CALM      30.08F
SOMERSET       CLEAR     61  61 100 CALM      30.09F
MIDDLESBORO    CLEAR     64  63  98 CALM      30.08F
MONTICELLO     SUNNY     60  60 100 CALM      30.11F FOG
$$



USA.gov is the U.S. government's official web portal to all federal, state and local government web resources and services.